カタログに戻る

COSMOS 1388

運用中ナビゲーションLEO
NORAD 13375·PAYLOAD·🇷🇺 Russia

打ち上げ Jul 21, 1982 から Plesetsk Cosmodrome

Loading…

次のパス (今後24時間)

TLE

最新Source: Space-Track

元期: Sep 14, 2026, 11:44 UTC

1 13375U 82073A   26257.48932597 -.00000019  00000-0 -15465-4 0  9995
2 13375  74.0113 257.9289 0051859  23.8495 132.8571 12.57510269 26786

AllMySatでCOSMOS 1388をリアルタイム追跡

Download on the App Store